Dewpoint
-12 -14 -16 -18 -18 -18 -16 -15 -14 -14 -14 -13 -12 -14 -13 -12 -12 -12 -13 -11 -10 -12 -16 -14 -14 -14 -15 -7 -6 -4 -1 -2 -1 -0 2 1 -1 -3 -4 -3 -2 -3 -3 -3 -3 -4 -4
-9 -12 -14 -17 -18 -18 -16 -15 -14 -14 -14 -14 -12 -13 -13 -13 -13 -12 -12 -11 -10 -18 -16 -14 -16 -15 -12 -8 -7 -2 -0 1 0 1 1 1 0 -2 -2 -2 -2 -2 -3 -3 -3 -4 -4
-5 -9 -11 -15 -18 -18 -17 -15 -14 -14 -14 -14 -13 -11 -13 -13 -12 -12 -13 -12 -10 -12 -17 -15 -17 -14 -10 -8 -10 -2 0 0 1 0 1 -0 -0 -0 -1 -2 -2 -2 -1 -2 -2 -2 -3
-10 -5 -8 -11 -15 -18 -16 -15 -15 -14 -13 -13 -14 -11 -11 -11 -11 -11 -12 -12 -8 -11 -17 -14 -18 -16 -10 -12 -10 -6 -0 -2 0 1 0 0 -1 -1 -1 -2 -2 -1 -1 0 -1 -2 -2
-15 -10 -6 -8 -12 -16 -16 -15 -14 -13 -13 -12 -12 -12 -10 -11 -10 -11 -9 -8 -8 -12 -12 -17 -17 -13 -11 -11 -9 -7 -3 -1 -0 0 0 0 0 -1 -1 -1 -1 -1 -4 -2 -1 -3 -3
-7 -14 -11 -6 -9 -12 -16 -15 -15 -14 -12 -12 -12 -11 -8 -10 -9 -7 -7 -6 -7 -8 -11 -13 -13 -9 -13 -10 -9 -7 -5 -0 -1 -1 0 1 -0 -1 -2 -2 -2 -3 -5 -4 -4 -4 -5
3 -6 -12 -12 -6 -9 -13 -15 -15 -14 -13 -12 -11 -11 -6 -6 -7 -5 -6 -6 -6 -6 -15 -15 -14 -14 -16 -9 -10 -10 -6 -3 -2 -2 -2 -2 -1 -2 -1 -2 -2 -2 -2 -3 -4 -7 -8
5 3 -3 -10 -12 -7 -9 -14 -14 -14 -14 -12 -11 -10 -6 -3 -4 -4 -4 -7 -3 -7 -11 -17 -19 -19 -21 -13 -9 -12 -12 -9 -6 -6 -7 -4 -6 -9 -5 -5 -4 -4 -3 -4 -6 -11 -13
6 6 4 1 -8 -12 -7 -11 -14 -14 -14 -13 -11 -10 -8 -4 -3 -3 -3 -4 -7 -8 -7 -11 -16 -14 -16 -14 -12 -13 -13 -12 -12 -12 -13 -11 -13 -15 -10 -8 -6 -7 -4 -5 -6 -13 -16
7 7 5 4 2 -6 -11 -8 -12 -14 -14 -13 -12 -11 -9 -6 -2 -3 -3 -3 -6 -4 -2 -6 -12 -14 -14 -18 -13 -17 -16 -12 -13 -13 -14 -14 -18 -15 -13 -12 -13 -9 -15 -14 -14 -12 -3
7 8 6 4 4 2 -6 -10 -9 -13 -14 -13 -12 -11 -9 -7 -4 -2 -2 -3 -4 -4 5 -9 -12 -15 -15 -12 -12 -15 -18 -13 -14 -14 -13 -12 -16 -16 -14 -13 -14 -10 -15 -15 -14 -13 -11
9 8 8 6 3 2 2 -7 -9 -10 -13 -14 -13 -11 -9 -7 -4 -1 -2 -2 -3 2 9 -7 -11 -12 -11 -13 -14 -15 -17 -16 -15 -15 -16 -15 -16 -15 -14 -15 -15 -14 -15 -14 -12 -11 1
9 8 6 5 5 4 2 2 -9 -10 -11 -14 -14 -13 -10 -5 -3 -1 -3 -1 3 3 -5 -6 -8 -10 -10 -11 -11 -12 -13 -14 -11 -4 -9 -14 -14 -16 -15 -14 -14 -14 -10 2 -0 2 1
8 8 9 6 4 6 4 3 2 -9 -11 -13 -14 -13 -10 -4 -1 -3 -2 1 6 1 -3 -10 -10 -11 -7 -11 -10 -10 -9 -7 -15 -13 -6 -3 -2 -13 -16 -13 -11 -12 -10 2 6 1 -2
8 9 8 8 6 6 6 4 4 1 -9 -13 -15 -14 -10 -5 -2 -6 1 6 4 2 -6 -8 -8 -4 -7 -9 -8 -7 -6 -7 -14 -14 -1 -3 -7 -15 -14 -15 -13 -10 -8 -9 -0 -7 -5
8 8 8 8 8 8 7 5 3 4 -3 -13 -15 -12 -8 -5 -5 -7 2 5 3 -6 -10 -6 1 -3 -2 -7 -5 -5 -5 -12 -11 -14 -12 -7 2 -12 -14 -14 -13 -9 -11 -3 -3 2 2
7 8 7 7 8 8 8 8 6 4 1 -10 -14 -9 -6 -5 -8 -5 5 4 -0 -11 -10 -5 0 -2 -2 -4 -4 -3 -3 -11 -13 -14 -13 -11 -4 -7 -12 -11 -9 -11 -5 -5 -1 -1 2
7 8 8 7 8 7 8 8 8 6 4 -7 -11 2 -0 -5 -4 -1 5 2 -7 -10 -11 -9 -6 -4 -3 -4 -3 -3 -3 -6 -13 -12 -9 -11 0 -2 -7 -13 -15 -12 -6 -3 -0 1 -2
6 6 7 8 7 7 8 8 8 7 6 0 1 2 0 -3 3 2 -2 -6 -7 -9 -10 -9 -8 -8 -10 -5 2 -4 -7 -11 -12 -12 -9 -8 -4 -1 -3 -6 -13 -10 -8 -5 -5 -4 -1
-6 3 5 7 7 8 8 8 8 8 7 5 3 2 -1 -2 0 2 0 -2 -5 -7 -9 -10 -10 -10 -9 -6 -5 -1 -5 -10 -12 -11 -8 -7 1 2 -1 0 -5 -5 -10 -10 -6 -1 -1
-0 -3 3 6 6 7 8 8 8 8 8 5 5 3 -0 1 0 1 1 1 -2 -5 -7 -8 -8 -6 -0 -1 -5 -1 -3 -8 -11 -5 -11 -6 -1 -2 -2 -2 -4 -3 -2 -5 -6 -5 -1
-3 3 3 5 6 7 8 8 6 8 7 5 4 3 1 0 1 1 2 2 -0 -3 -4 -6 -1 -5 -3 2 2 -0 -0 -2 -2 -8 -6 -7 -0 -5 -2 -4 -5 -4 -4 -4 -3 -3 -3
-7 1 4 5 7 5 4 6 7 7 8 5 5 4 3 1 1 3 2 2 2 -2 -3 -4 -1 -3 -3 -4 -5 -6 -5 -5 -4 -5 -4 -4 -2 -1 -0 -6 -5 -2 -4 -5 -6 -5 -3
-14 5 6 7 6 4 5 6 7 7 7 5 5 4 3 2 1 3 3 1 1 0 1 -4 -4 1 -7 -7 -6 -7 -8 -8 -7 -7 -5 -4 -3 -0 -0 -3 1 -4 -11 -8 -5 -4 -5
3 6 7 7 4 4 4 5 7 6 4 5 5 5 4 2 1 1 2 1 -1 -2 -4 -5 -6 -6 -7 -4 0 0 -3 -4 -7 -10 -8 -6 -1 0 0 -1 -2 -4 -9 -9 -7 -5 -6
6 6 7 6 5 4 3 4 3 5 4 5 5 5 4 1 1 1 1 0 1 -1 -4 -6 -7 -7 -4 -1 0 1 0 -3 -4 -9 -10 -7 -5 -1 -3 -1 -2 -6 -12 -15 -12 -5 -14
5 6 6 6 6 2 1 4 4 4 4 5 5 4 3 1 -0 0 1 1 -0 -1 -3 -6 -6 -5 -4 -0 0 -0 -1 -7 -2 -4 -6 -5 -4 -3 -2 -2 -3 -10 -14 -16 -5 -5 -16
2 5 5 5 1 -5 -5 -5 -2 2 3 3 4 5 3 0 -1 0 1 -0 -1 -2 -1 -5 -4 -4 -4 0 -0 -1 -1 -4 -4 -6 -6 -5 -3 -4 -3 -2 -3 -14 -14 -7 -11 -16 -18
-5 -2 0 -4 -11 -13 -12 -13 -11 -8 -1 3 4 3 2 -0 -3 -2 -1 -1 -1 -2 -4 -5 -3 -4 -3 0 -1 -3 -3 -6 -4 -2 -10 -4 -4 -3 -3 -4 -10 -14 -12 -15 -18 -13 -13
Wind_Speed
9 10 9 9 7 6 4 3 2 2 3 5 7 8 10 11 9 8 7 6 5 5 4 3 3 1 3 3 4 3 4 4 3 3 2 0 3 2 2 2 2 3 4 5 4 3 2
11 11 11 10 9 7 5 4 3 2 2 3 4 7 8 8 7 7 6 6 6 5 3 3 4 1 1 2 3 4 4 4 3 4 2 1 0 4 6 3 4 4 6 5 3 3 2
13 12 12 12 11 10 7 6 4 3 3 3 4 4 5 6 4 3 4 5 6 4 3 3 2 8 7 3 4 4 5 5 4 5 3 6 4 0 4 6 6 8 3 3 3 3 3
16 15 14 13 13 12 10 8 6 4 3 3 3 4 4 3 1 2 4 4 6 4 3 3 2 4 4 4 6 4 3 5 6 5 6 7 7 6 3 10 5 4 3 4 4 1 1
18 17 15 14 14 13 12 10 8 6 5 4 4 4 4 3 2 1 4 5 6 4 4 3 3 5 4 5 6 5 3 4 6 4 5 5 3 4 4 4 4 4 2 2 4 1 1
20 18 17 16 15 15 14 12 10 9 7 6 5 5 4 4 2 1 4 2 4 9 2 3 5 3 4 4 5 5 3 4 3 2 2 0 1 2 3 4 3 2 2 1 4 3 4
22 21 19 18 16 16 15 14 12 10 9 7 6 6 6 4 3 1 2 2 3 1 11 7 3 4 3 3 7 5 3 5 2 0 2 0 5 3 6 5 4 3 3 4 0 2 5
23 22 21 19 18 16 16 15 14 12 10 8 7 7 6 5 3 1 1 1 1 4 8 8 7 6 6 4 1 7 3 0 1 2 1 4 3 4 2 2 1 1 3 3 1 1 4
25 23 22 21 20 18 17 16 15 14 12 9 8 7 6 5 3 1 1 1 3 5 1 2 4 3 2 5 3 7 5 2 3 3 3 3 5 2 2 1 2 2 3 3 3 8 4
28 25 24 23 21 20 18 17 16 15 14 12 10 10 8 6 4 3 2 2 1 1 4 3 1 2 3 2 2 7 4 2 2 3 4 6 3 1 1 3 4 3 3 1 4 6 4
32 30 26 23 23 21 19 18 17 16 15 13 12 11 9 9 4 6 3 3 0 2 5 3 3 0 4 2 1 4 7 3 3 4 3 4 2 2 1 2 3 3 1 2 3 5 5
36 34 29 25 22 22 21 19 18 17 16 15 13 12 11 10 8 6 5 3 1 3 5 3 1 2 2 2 2 2 2 4 4 2 9 5 2 4 4 2 2 3 3 3 2 2 3
35 39 36 31 26 24 22 21 19 18 17 16 14 13 12 11 8 8 7 3 4 5 2 3 1 1 1 2 2 2 1 3 2 2 4 4 3 3 2 2 3 3 4 2 3 3 1
31 35 38 36 32 28 25 23 21 19 18 17 15 14 14 13 9 11 9 4 8 1 4 3 3 3 2 1 2 1 2 2 1 2 1 3 4 2 4 4 3 3 3 2 4 3 5
31 30 26 38 38 32 28 24 22 20 19 18 16 15 14 14 12 14 5 6 4 3 6 10 4 4 4 3 2 4 2 1 3 4 2 2 3 3 4 2 4 3 0 2 3 2 3
27 27 26 23 32 30 31 29 26 22 21 19 17 13 12 14 15 13 4 7 3 2 6 7 9 5 5 7 5 5 6 2 3 1 3 2 1 1 2 1 3 2 1 3 4 4 5
29 33 26 24 22 24 34 29 30 27 24 21 18 8 9 14 13 7 4 6 4 4 3 6 6 5 5 5 6 4 3 2 1 3 1 1 0 3 2 3 2 3 2 0 1 2 3
33 32 31 29 29 25 24 28 31 30 27 26 19 3 12 19 5 3 6 3 5 7 3 2 1 1 7 7 5 5 4 4 2 3 3 2 2 2 3 2 2 3 1 3 3 4 3
37 33 32 30 31 30 28 30 32 37 35 34 13 8 15 27 4 3 1 2 4 6 6 6 5 1 1 5 4 3 4 2 2 1 2 3 2 2 4 2 2 5 5 2 2 1 8
37 38 33 34 34 32 32 32 40 36 39 36 14 4 4 12 6 3 5 6 6 1 6 4 4 4 4 3 2 5 5 3 2 2 2 1 1 4 7 2 3 4 7 10 7 5 9
29 33 36 36 33 30 31 32 37 30 38 40 13 5 11 6 9 5 6 8 8 6 2 7 2 6 5 4 4 5 5 5 4 4 2 2 4 3 10 5 5 7 12 13 17 18 12
33 33 33 34 34 30 30 36 35 35 42 39 14 9 9 5 15 12 5 6 10 5 8 5 4 10 6 4 3 7 7 6 3 6 4 1 1 1 4 6 4 7 15 17 21 19 18
32 32 30 34 33 32 28 33 35 39 44 20 16 18 14 10 7 10 7 6 10 14 1 4 6 6 4 4 8 10 10 9 6 7 7 5 5 2 4 1 5 9 17 17 8 8 10
29 28 29 33 33 26 21 29 39 36 49 27 30 25 8 3 4 8 7 6 10 7 8 4 7 4 7 15 17 13 16 14 11 10 6 5 4 2 4 2 6 1 1 1 11 7 13
25 26 30 36 25 19 20 16 33 46 47 30 30 23 8 3 5 4 10 9 15 9 6 6 4 5 23 8 2 1 2 1 3 5 4 5 4 3 4 5 12 7 4 5 5 2 6
27 25 32 33 26 19 16 23 21 41 49 18 26 21 14 13 7 8 7 12 5 4 4 5 9 19 8 3 2 4 5 1 3 2 3 1 2 3 3 5 6 4 4 5 2 7 2
36 29 29 30 25 23 17 26 22 19 32 38 20 19 12 9 10 15 4 6 8 7 5 7 9 6 4 3 4 5 4 1 3 6 6 4 3 11 11 7 9 5 11 6 3 3 4
34 33 28 26 28 27 26 24 26 25 22 28 19 21 14 8 14 11 11 9 9 11 5 13 7 3 3 6 5 4 5 5 3 3 6 8 8 6 6 7 11 11 8 7 3 3 4
29 30 29 29 29 28 28 27 28 29 28 28 20 17 13 11 10 12 12 13 12 12 11 26 2 7 10 4 2 3 3 3 3 3 1 4 5 3 9 5 3 17 3 6 3 3 2
Wind_Direction
229 226 221 215 208 201 191 174 140 109 96 94 104 105 104 106 99 82 69 45 45 33 20 26 18 46 116 86 32 12 31 46 80 92 103 81 205 196 190 98 112 87 116 85 86 71 60
230 227 223 218 213 208 204 197 185 158 128 120 115 124 125 116 104 80 52 40 27 17 31 30 8 49 83 233 13 43 51 54 81 92 88 65 147 110 108 65 10 90 98 97 74 81 92
232 230 226 222 216 212 209 208 204 190 165 154 147 152 153 144 121 64 37 39 17 4 5 1 27 97 74 101 48 58 66 60 87 124 94 131 105 352 124 114 116 136 95 127 70 26 20
233 231 228 224 221 214 213 211 210 204 196 184 179 177 185 189 191 6 10 9 1 8 5 9 83 105 83 72 51 41 96 53 72 117 124 115 92 95 75 119 136 212 233 231 107 124 93
234 231 228 226 223 221 214 212 210 209 206 202 202 195 191 192 197 4 3 6 18 17 14 53 78 124 79 63 38 48 94 103 81 97 104 94 72 101 139 213 193 202 264 242 145 120 298
235 234 230 226 224 223 220 215 213 211 210 209 209 201 195 192 196 349 348 16 52 33 78 78 69 118 45 346 27 43 69 138 85 65 90 38 185 195 198 234 319 77 244 197 297 87 249
236 234 231 227 225 223 221 218 216 215 212 215 209 205 200 193 187 284 345 356 351 28 58 75 44 85 47 80 56 20 95 93 103 91 245 155 237 41 38 11 5 2 315 298 33 41 296
232 233 232 229 226 225 223 220 218 216 215 214 216 212 205 200 195 238 344 260 289 153 89 66 70 68 57 74 58 8 94 215 206 139 231 207 55 41 20 11 343 310 302 295 101 21 290
233 231 230 229 228 224 222 221 218 216 213 210 210 211 209 205 204 203 176 151 128 133 292 62 62 41 31 69 46 356 50 55 77 100 54 29 73 16 319 68 314 68 333 357 313 316 256
230 229 229 229 225 226 224 222 219 216 213 211 206 204 205 202 226 202 194 170 166 181 250 120 127 357 2 89 64 25 33 57 78 116 68 74 69 58 115 87 332 256 40 319 306 321 312
226 229 227 226 229 225 221 223 221 218 215 213 211 206 204 199 203 191 215 185 296 112 290 89 108 141 45 34 41 14 31 24 49 96 260 83 72 71 136 59 334 65 319 315 298 280 318
226 226 226 223 223 226 224 218 220 218 215 213 211 208 202 205 215 212 182 175 126 230 252 121 130 150 182 53 60 3 84 76 120 103 56 86 61 14 38 68 20 118 251 241 244 246 239
238 223 225 225 222 220 221 224 217 218 216 215 214 211 207 200 210 193 172 155 238 233 98 143 159 199 121 98 102 11 131 140 278 198 182 148 80 93 8 231 166 231 276 256 205 204 352
238 239 232 222 223 223 219 218 219 216 217 214 212 212 210 213 206 185 165 218 236 15 190 126 139 142 255 161 114 115 193 196 121 274 234 218 186 26 10 30 359 0 333 330 279 296 334
238 241 239 223 223 223 220 214 214 216 214 211 208 208 210 210 201 184 196 212 249 167 139 156 139 208 174 181 257 200 220 179 57 8 278 274 126 118 60 14 337 58 198 45 301 236 260
240 229 230 235 221 228 217 216 216 216 212 205 200 194 204 203 187 191 261 236 205 126 129 173 203 206 205 179 203 207 177 80 124 40 5 53 245 21 91 195 77 343 58 202 178 291 284
238 232 228 224 229 235 231 216 216 213 210 201 193 182 197 188 175 178 236 217 147 164 162 197 205 169 223 176 230 204 135 106 125 131 26 125 299 117 220 199 104 153 174 141 321 270 283
237 236 230 218 221 227 223 232 222 210 205 197 188 171 188 174 135 190 246 203 133 167 167 160 197 163 190 172 188 216 202 56 96 156 141 76 77 261 26 75 344 300 240 229 242 173 229
234 233 230 224 239 228 233 231 234 216 204 195 172 186 184 177 169 208 275 198 161 150 184 178 160 176 137 164 155 170 130 87 104 201 154 161 139 279 182 150 186 231 190 152 100 266 240
234 232 230 232 232 237 233 231 231 228 214 204 165 144 134 186 211 238 176 201 167 137 155 151 125 121 133 142 89 157 144 129 98 104 66 116 156 241 262 19 89 195 210 209 202 229 261
229 232 232 232 227 235 229 235 241 238 221 201 173 183 171 176 217 211 193 178 167 173 183 167 133 207 158 135 151 173 145 139 146 153 122 210 232 246 274 286 232 251 250 223 218 231 249
232 228 228 227 221 225 218 227 233 233 227 196 166 150 157 178 189 171 162 210 186 151 154 191 214 182 174 157 191 178 139 173 181 167 157 69 197 92 273 248 199 253 251 244 248 254 255
233 228 226 221 220 216 226 221 229 237 224 197 183 164 170 156 142 171 185 177 192 140 144 58 151 131 164 117 98 94 100 88 109 150 164 172 159 173 266 74 294 267 240 226 215 210 220
229 225 220 214 212 214 217 220 222 230 232 198 181 167 140 150 173 184 149 145 168 184 136 97 124 111 143 128 102 89 74 75 74 46 38 148 175 192 281 252 243 336 102 1 224 230 217
214 218 224 203 203 210 221 196 212 216 192 202 183 176 136 113 137 119 145 119 109 90 80 88 72 126 139 123 117 156 133 135 53 38 15 4 193 216 256 239 298 272 196 189 186 274 247
202 213 216 199 206 208 215 190 192 209 194 169 176 177 162 131 199 140 129 163 142 119 99 81 119 146 143 171 152 217 227 139 182 116 46 9 330 234 148 245 260 83 129 140 125 270 42
203 208 204 203 203 203 185 175 170 175 200 206 212 194 153 112 148 153 138 167 149 128 102 133 151 165 160 151 184 213 222 2 210 185 165 154 194 221 222 252 276 102 141 140 193 312 109
202 211 213 195 198 200 184 177 182 182 183 194 185 177 171 124 150 168 168 160 163 161 148 150 123 178 160 198 207 192 219 185 207 125 181 177 169 193 202 231 263 147 131 202 98 106 143
197 200 201 198 199 197 186 184 182 181 182 187 184 176 175 147 149 161 169 174 183 166 139 166 158 149 168 176 192 130 177 159 214 236 206 219 228 199 204 223 98 184 169 189 174 133 238
Height
1533 1533 1533 1534 1534 1534 1534 1534 1533 1533 1533 1532 1531 1531 1531 1531 1532 1532 1532 1532 1531 1530 1530 1529 1528 1528 1529 1532 1532 1530 1528 1528 1527 1528 1529 1530 1530 1530 1528 1532 1533 1532 1541 1544 1545 1544 1544
1531 1532 1532 1533 1534 1534 1534 1534 1534 1533 1533 1533 1532 1532 1532 1533 1533 1533 1533 1533 1532 1531 1530 1529 1529 1529 1530 1532 1532 1530 1529 1529 1528 1529 1530 1531 1532 1532 1534 1535 1534 1539 1541 1544 1546 1547 1547
1530 1530 1531 1531 1532 1533 1533 1534 1534 1534 1533 1533 1533 1533 1533 1533 1534 1534 1534 1533 1533 1532 1531 1530 1530 1529 1531 1534 1532 1531 1531 1531 1530 1530 1531 1530 1532 1534 1535 1538 1540 1540 1539 1542 1545 1546 1546
1528 1528 1529 1530 1531 1531 1532 1532 1533 1533 1534 1533 1533 1533 1534 1535 1535 1535 1534 1533 1533 1532 1532 1531 1530 1531 1533 1534 1533 1533 1533 1533 1532 1532 1532 1532 1533 1535 1537 1540 1541 1537 1537 1530 1544 1546 1548
1526 1526 1527 1528 1529 1529 1530 1531 1532 1533 1533 1533 1534 1534 1534 1535 1535 1535 1534 1534 1533 1532 1532 1531 1532 1532 1536 1535 1535 1534 1534 1534 1534 1534 1534 1534 1535 1537 1540 1534 1532 1534 1521 1530 1539 1546 1546
1522 1524 1524 1525 1526 1527 1528 1529 1531 1532 1532 1532 1533 1533 1534 1535 1535 1535 1535 1534 1533 1533 1532 1533 1533 1536 1537 1538 1536 1535 1535 1535 1535 1536 1537 1537 1537 1533 1534 1531 1525 1523 1527 1534 1534 1546 1546
1519 1520 1521 1523 1524 1524 1526 1527 1529 1530 1531 1532 1532 1533 1534 1534 1535 1536 1535 1535 1537 1537 1533 1537 1538 1538 1537 1538 1536 1537 1536 1536 1537 1537 1533 1538 1533 1529 1540 1544 1543 1540 1539 1537 1536 1548 1548
1515 1517 1518 1519 1521 1522 1523 1525 1527 1529 1530 1531 1532 1533 1534 1535 1535 1536 1535 1536 1535 1537 1539 1539 1538 1538 1537 1537 1539 1538 1537 1539 1536 1534 1538 1536 1534 1549 1549 1547 1545 1543 1542 1537 1543 1550 1549
1510 1512 1514 1516 1518 1519 1521 1523 1524 1526 1528 1529 1531 1532 1534 1535 1536 1536 1535 1535 1535 1535 1537 1541 1540 1540 1540 1540 1540 1540 1539 1539 1537 1537 1535 1535 1549 1553 1551 1549 1547 1545 1547 1547 1552 1547 1545
1505 1507 1510 1512 1514 1516 1517 1520 1522 1523 1525 1527 1529 1530 1532 1534 1538 1535 1534 1535 1534 1535 1530 1540 1541 1541 1542 1540 1543 1541 1540 1542 1541 1540 1541 1546 1553 1552 1550 1552 1555 1545 1557 1556 1555 1549 1533
1498 1503 1505 1508 1510 1512 1514 1516 1519 1521 1523 1525 1527 1529 1531 1533 1533 1534 1535 1534 1534 1535 1533 1543 1541 1541 1541 1543 1544 1543 1542 1542 1541 1545 1547 1552 1553 1551 1548 1557 1558 1557 1559 1557 1556 1550 1552
1491 1496 1500 1502 1505 1508 1510 1512 1515 1518 1520 1523 1525 1527 1529 1531 1533 1533 1533 1533 1534 1533 1534 1539 1541 1541 1542 1543 1543 1543 1543 1543 1545 1545 1548 1556 1560 1559 1559 1562 1561 1561 1558 1556 1556 1550 1547
1483 1487 1492 1497 1500 1503 1506 1509 1511 1514 1517 1520 1523 1525 1528 1529 1531 1532 1533 1534 1532 1529 1537 1537 1539 1540 1539 1542 1543 1543 1542 1541 1540 1541 1538 1553 1557 1562 1563 1558 1561 1559 1549 1535 1534 1541 1523
1478 1480 1484 1490 1495 1498 1501 1504 1508 1510 1514 1517 1520 1523 1525 1528 1529 1531 1532 1534 1532 1521 1523 1536 1537 1540 1537 1542 1543 1543 1542 1539 1546 1544 1536 1535 1540 1559 1564 1563 1560 1555 1554 1547 1543 1525 1524
1471 1472 1477 1481 1487 1491 1496 1499 1503 1506 1511 1515 1518 1520 1523 1526 1528 1530 1533 1529 1516 1515 1522 1530 1538 1535 1536 1542 1542 1540 1539 1538 1546 1548 1542 1536 1545 1565 1566 1565 1566 1558 1549 1565 1564 1559 1549
1466 1469 1473 1475 1480 1484 1489 1493 1498 1502 1508 1512 1515 1519 1521 1524 1527 1530 1532 1518 1517 1522 1525 1526 1521 1526 1524 1535 1539 1538 1536 1547 1548 1551 1551 1550 1544 1564 1567 1566 1566 1564 1567 1556 1557 1548 1536
1460 1466 1467 1470 1474 1477 1482 1487 1492 1498 1504 1509 1515 1518 1519 1522 1527 1530 1528 1515 1520 1524 1525 1525 1520 1526 1525 1532 1534 1532 1532 1550 1550 1551 1551 1549 1548 1562 1567 1561 1554 1565 1562 1568 1569 1562 1542
1454 1459 1460 1465 1469 1474 1479 1482 1487 1492 1499 1506 1510 1516 1516 1519 1527 1527 1524 1516 1520 1523 1525 1526 1526 1525 1526 1529 1533 1533 1535 1543 1552 1553 1549 1555 1555 1545 1551 1569 1570 1567 1561 1560 1551 1554 1553
1447 1452 1456 1459 1464 1468 1473 1477 1481 1485 1491 1498 1505 1510 1512 1514 1520 1524 1521 1520 1519 1521 1523 1526 1526 1527 1531 1530 1539 1536 1542 1554 1553 1555 1553 1555 1552 1544 1548 1567 1568 1564 1562 1568 1571 1566 1549
1439 1443 1447 1453 1456 1461 1464 1468 1474 1479 1484 1492 1500 1507 1512 1513 1513 1513 1514 1515 1517 1521 1521 1524 1527 1530 1531 1534 1540 1544 1546 1554 1554 1557 1558 1558 1558 1549 1535 1546 1552 1559 1558 1561 1562 1554 1532
1430 1434 1438 1446 1449 1453 1457 1459 1464 1470 1474 1484 1487 1491 1493 1506 1508 1508 1510 1511 1513 1518 1521 1523 1527 1525 1529 1538 1539 1540 1544 1553 1555 1557 1557 1559 1556 1555 1551 1555 1558 1556 1550 1550 1552 1538 1537
1423 1427 1431 1438 1442 1446 1449 1453 1457 1463 1470 1474 1476 1482 1490 1494 1495 1505 1510 1511 1508 1515 1517 1520 1523 1522 1526 1532 1529 1535 1541 1546 1545 1556 1557 1562 1557 1567 1559 1551 1559 1561 1553 1548 1541 1538 1536
1417 1421 1424 1429 1434 1439 1441 1443 1449 1455 1462 1462 1468 1472 1478 1489 1493 1497 1500 1502 1504 1509 1517 1517 1520 1525 1530 1532 1534 1538 1542 1544 1546 1549 1554 1559 1560 1561 1541 1559 1560 1547 1532 1529 1529 1531 1530
1410 1415 1419 1422 1428 1431 1434 1435 1440 1447 1452 1455 1460 1467 1473 1484 1488 1488 1492 1497 1502 1506 1511 1518 1521 1523 1533 1534 1537 1542 1544 1548 1551 1554 1556 1557 1558 1555 1545 1557 1537 1517 1528 1527 1521 1519 1521
1405 1409 1410 1416 1422 1425 1428 1429 1435 1443 1447 1452 1455 1461 1466 1479 1483 1487 1491 1496 1504 1508 1513 1520 1524 1526 1530 1535 1537 1541 1543 1549 1556 1559 1559 1559 1553 1549 1549 1534 1514 1507 1527 1527 1525 1512 1516
1400 1404 1407 1411 1418 1421 1423 1425 1429 1437 1446 1452 1456 1459 1464 1471 1482 1483 1489 1495 1500 1507 1517 1523 1527 1529 1531 1534 1533 1532 1524 1528 1546 1558 1561 1562 1560 1552 1561 1546 1514 1511 1524 1526 1527 1513 1519
1395 1400 1403 1408 1413 1419 1420 1423 1428 1435 1443 1451 1455 1460 1463 1468 1479 1483 1487 1491 1495 1502 1512 1521 1526 1530 1531 1529 1528 1527 1524 1546 1530 1537 1553 1556 1556 1548 1542 1540 1515 1518 1522 1526 1521 1509 1522
1389 1395 1400 1403 1411 1417 1418 1422 1428 1433 1441 1450 1452 1457 1462 1465 1476 1479 1484 1489 1494 1497 1500 1516 1523 1526 1530 1527 1522 1519 1523 1532 1533 1535 1540 1538 1540 1542 1540 1535 1523 1518 1525 1518 1517 1519 1520
1383 1390 1397 1402 1408 1412 1416 1419 1424 1430 1438 1447 1453 1457 1461 1465 1477 1481 1483 1487 1492 1494 1496 1504 1504 1506 1512 1515 1519 1522 1525 1535 1522 1515 1537 1529 1518 1515 1519 1507 1512 1514 1512 1514 1515 1517 1519